www.pogodaiklimat.ru

Погода и климат >> Архив погоды >> Россия >> Тюменская область >> Тюмень


АРХИВ ПОГОДЫ в Тюмени

Время (UTC), дата Ветер
(напр.,м/с)
 
Видим.   Явления Облачность Т
(С)
Тd
(С)
f
(%)
Тe
(С)
Тes
(С)
Комфортность P
(гПа)
Po
(гПа)
Тmin
(С)
Tmax
(С)
R
(мм)
R24
(мм)
S
(см)
09 11.08 СЗ 6-12
{14}
4000 м 8/4 600 м
[Cu med, cong Cc]
+19.8 +9.0 50 +21 +23 комфорт 999.6 987.9
12 11.08 СЗ 4-10
{12}
4000 м 3/1 600 м
[Sc Ci fib]
+17.8 +5.2 43 +18 +20 прохладно 1002.2 990.5
15 11.08 СЗ 2
{12}
4000 м ясно +14.8 +5.9 55 +15 +15 прохладно 1004.4 992.5 +20.2 0.3
18 11.08 З 1 50 км 1/1 600 м
[Sc]
+10.7 +6.6 76 +10 +10 прохладно 1006.3 994.2
21 11.08 З 1 50 км 3/0
[Ac trans Ci fib]
+7.4 +6.6 95 +6 +6 холодно 1007.1 994.8
00 12.08 З 1 4000 м местами туман поземный 4/3 600 м
[Sc Ci fib]
+5.5 +5.2 98 +4 +4 очень
холодно
1007.8 995.4
03 12.08 СЗ 2 4000 м 8/1 600 м
[Cu hum Ci sp]
+11.2 +7.8 80 +10 +13 холодно 1008.7 996.6 +5.1
06 12.08 СЗ 3 4000 м 8/6 600 м
[Cu hum Ci fib]
+15.1 +6.4 56 +15 +18 прохладно 1009.3 997.3
09 12.08 З 3 4000 м 4/3 600 м
[Cu hum Ci fib]
+17.1 +7.2 52 +17 +23 прохладно 1009.4 997.5
12 12.08 З 3 4000 м 4/0
[Ci fib]
+18.5 +7.4 48 +19 +22 по сезону 1009.4 997.6
15 12.08 штиль 0 4000 м 8/0
[Ac trans Ci sp]
+15.6 +11.1 75 +15 +15 прохладно 1009.8 997.9 +19.0
18 12.08 штиль 0 50 км 6/0
[Ac trans]
+11.7 +11.1 96 +11 +11 прохладно 1010.2 998.1
21 12.08 Ю 1 50 км слабый дождь 10/0
[Ac As]
+13.8 +11.3 85 +14 +14 по сезону 1009.5 997.5
00 13.08 Ю 1 4000 м {ливн. осадки, дождь} 10/0
[Ac und]
+13.7 +12.9 95 +14 +14 тепло 1009.6 997.6
03 13.08 ЮЗ 2 4000 м в посл. час гроза {ливн. осадки} 8/3 600 м
[Cb cap Ac trans Ci sp]
+16.1 +15.8 98 +16 +18 по сезону 1010.0 998.1 +11.5 4
06 13.08 ЮЗ 2 4000 м {гроза, ливн. осадки} 8/0
[Ac trans Ci fib]
+21.5 +18.3 82 +26 +32 душно 1010.1 998.4
09 13.08 Ю 3 4000 м 8/6 1000 м
[Cu med, cong Ci fib]
+26.5 +17.4 57 +31 +34 душно 1009.5 998.0
12 13.08 ЮЗ 3 4000 м 5/5 1000 м
[Cu hum]
+27.2 +14.9 47 +30 +31 душно 1009.0 997.5
15 13.08 Ю 1 4000 м ясно +23.2 +16.0 64 +28 +28 душно 1009.0 997.4 +27.6
18 13.08 Ю 1 20 км ясно +19.7 +15.9 79 +23 +23 комфорт 1009.4 997.7
21 13.08 Ю 1 20 км ясно +17.6 +15.5 87 +19 +19 тепло 1009.4 997.6
00 14.08 Ю 1 4000 м 8/0
[Ac As]
+16.3 +14.8 91 +17 +17 тепло 1009.6 997.7
03 14.08 Ю 1 4000 м 3/0
[Ci fib]
+19.6 +15.9 79 +23 +26 комфорт 1010.0 998.2 +15.2
06 14.08 Ю 2 4000 м 3/0
[Ac cast Ci fib]
+26.2 +13.7 46 +28 +37 жарко 1010.1 998.4
09 14.08 СВ 1 4000 м в посл. час ливневой дождь 10/6 600 м
[Cb cap Ac As]
+24.4 +19.3 73 +29 +31 душно 1008.7 997.1
12 14.08 ЮВ 2
{18}
4000 м {гроза, ливн. осадки} 8/0
[Ac As]
+22.6 +17.4 72 +27 +29 душно 1008.1 996.5
15 14.08 В 1 4000 м в посл. час гроза 9/3 600 м
[Cb cap Ac cuf Ci ing]
+21.1 +19.7 92 +26 +26 душно 1007.7 996.1 +28.2 14
18 14.08 ЮЗ 1
{10}
10 км в посл. час гроза {ливн. осадки} 10/10 720 м
[Cb cap]
+18.1 +17.0 93 +19 +19 тепло 1007.9 996.2
21 14.08 ЮВ 1 20 км {ливн. осадки} 8/0
[Ac trans Ci sp]
+17.3 +17.0 98 +18 +18 тепло 1007.5 995.7
00 15.08 ЮВ 1 4000 м в посл. час ливневой дождь 10/10 750 м
[Cb cap]
+16.8 +16.7 99 +18 +18 тепло 1006.8 995.0
03 15.08 Ю 1 4000 м {ливн. осадки} 10/10 600 м
[Cb cap]
+17.5 +17.1 98 +19 +19 тепло 1006.2 994.4 +16.8 7
06 15.08 З 1 4000 м {ливн. осадки} 10/10 600 м
[Cb cap]
+19.3 +17.6 90 +22 +22 комфорт 1005.7 994.0
09 15.08 С 1 4000 м {ливн. осадки} 8/6 600 м
[Cu med, cong Ac trans Ci fib]
+22.1 +17.9 77 +27 +31 душно 1004.9 993.3
12 15.08 СЗ 2 4000 м гроза, ливневой дождь 10/10 600 м
[Cb cap]
+17.7 +17.4 98 +18 +18 прохладно 1006.0 994.2
15 15.08 СЗ 3 4000 м {гроза, ливн. осадки} 10/10 600 м
[Cb cap]
+16.9 +16.5 97 +17 +17 по сезону 1007.3 995.5 +22.1 7
18 15.08 С 3 4000 м ливневой дождь {гроза} 10/10 600 м
[Cb cap]
+16.1 +16.0 99 +16 +16 тепло 1007.5 995.6
21 15.08 СЗ 3 20 км {ливн. осадки} 10/10 300 м
[St]
+14.6 +14.4 99 +14 +14 по сезону 1008.4 996.5
00 16.08 СЗ 4 4000 м {ливн. осадки} 10/10 300 м
[St]
+14.3 +13.6 96 +13 +13 по сезону 1009.7 997.7
03 16.08 СЗ 3 4000 м 4/3 300 м
[St Ac As]
+14.9 +13.2 90 +14 +16 по сезону 1011.0 999.0 +14.1 17
06 16.08 СЗ 3 4000 м 4/1 600 м
[Cu hum Ac trans Ci fib]
+19.4 +12.2 63 +21 +27 комфорт 1011.6 999.8
09 16.08 СЗ 3 4000 м 5/4 600 м
[Cu med, cong Ci sp]
+21.0 +10.8 52 +23 +28 комфорт 1012.0 1000.3
12 16.08 З 2 4000 м 6/4 600 м
[Cu med, cong Ac trans Ci sp]
+22.1 +10.4 47 +24 +26 комфорт 1012.2 1000.5
15 16.08 штиль 0 4000 м 9/1 600 м
[Cu hum Ac As Ci sp]
+17.7 +14.9 84 +18 +18 тепло 1012.0 1000.1 +22.5
18 16.08 Ю 1 20 км {дождь} 10/0
[Ac As]
+17.0 +13.8 81 +18 +18 тепло 1011.3 999.4
21 16.08 Ю 1 20 км 10/0
[Ac As]
+16.7 +13.6 82 +18 +18 тепло 1009.3 997.4
00 17.08 Ю 2 20 км в посл. час ливневой дождь 10/5 600 м
[Cb cap Ac As]
+15.5 +14.8 96 +15 +15 тепло 1007.7 995.8
03 17.08 Ю 2 4000 м 9/4 600 м
[Sc Ac trans Ci fib]
+16.8 +15.4 91 +17 +18 тепло 1006.4 994.5 +15.1 1
06 17.08 ЮЗ 2 4000 м 10/4 600 м
[Cb calv Ac As]
+19.1 +16.2 83 +21 +23 комфорт 1005.8 994.1
09 17.08 ЮЗ 4 4000 м {ливн. осадки} 8/3 600 м
[Cb calv Ac trans Ci fib]
+21.4 +14.3 64 +24 +27 комфорт 1004.9 993.3
12 17.08 З 4
{12}
4000 м {ливн. осадки} 10/10 600 м
[Cb cap]
+16.1 +13.0 82 +15 +15 холодно 1007.3 995.4
15 17.08 З 3
{11}
4000 м 10/10 600 м
[Cb cap]
+14.8 +12.3 85 +14 +14 прохладно 1008.6 996.7 +22.0 0.0
18 17.08 З 4 20 км 10/10 420 м
[St]
+13.8 +11.1 84 +12 +12 по сезону 1009.1 997.1
21 17.08 З 3 20 км 10/10 500 м
[Sc]
+12.5 +9.8 84 +11 +11 по сезону 1009.3 997.2
00 18.08 З 4 20 км 10/10 400 м
[Sc]
+11.4 +9.4 88 +9 +9 по сезону 1010.0 997.9
03 18.08 З 3 4000 м {морось} 10/10 330 м
[St]
+12.1 +9.6 85 +10 +10 прохладно 1011.0 998.9 +11.3 0.0

 

Местоположение метеостанции Тюмень (Тюменская область, Россия): широта 57.12 долгота 65.43 высота над уровнем моря 102 м.

В архиве по умолчанию представлена погода в Тюмени за последнюю неделю. Архивные данные за месяц целиком и за предыдущие месяцы, начиная с января 2011 года, Вы можете получить, выбрав интересующий диапазон дат из раскрывающегося списка и нажав кнопку "Ввод!".


*Определитесь, кто Вы:
робот инопланетянин человек

Внимание! Время в таблицах - всемирное. Для получения местного времени необходимо прибавить поправку, которая в Тюмени равна 5 ч.

Смотрите также архив погоды в соседних городах и на ближайших метеорологических станциях:

Погода в Тугулыме (Свердловская область, Россия) (46 км)
Погода в Ялуторовске (Тюменская область, Россия) (74 км)
Погода в Шатрово (Курганская область, Россия) (82 км)
Погода в Ярково (Тюменская область, Россия) (105 км)
Погода в Тавде (Свердловская область, Россия) (106 км)
Погода в Бутке (Свердловская область, Россия) (110 км)
Погода в Памятном (Курганская область, Россия) (123 км)
Погода в Туринске (Свердловская область, Россия) (147 км)
Погода в Ирбите (Свердловская область, Россия) (158 км)
Погода в Шадринске (Курганская область, Россия) (160 км)

Пояснения к столбцам:

Ветер - указаны скорость ветра в м/с - средняя за 10 мин, порывы в срок и между сроками (в фигурных скобках) и направление, откуда дует ветер: С - северный, СВ - северо-восточный, В - восточный, ЮВ - юго-восточный, Ю - южный, ЮЗ - юго-западный, З - западный, СЗ - северо-западный.
Видимость - горизонтальная дальность видимости в метрах или километрах. При видимости от 1 до 10 км при отсутствии осадков обычно наблюдается дымка, при ухудшении видимости до 1 км и менее - туман. В сухую погоду видимость может ухудшаться дымом, пылью или мглою.
Явления - указаны атмосферные явления, наблюдавшиеся в срок или в последний час перед сроком; фигурными скобками обозначены явления, наблюдавшиеся между сроками (за 1-3 часа до срока); квадратными скобками обозначены град или гололедные отложения с указанием их диаметра в мм.
Облачность - указаны через наклонную черту общая и нижняя облачность в баллах и высота нижней границы облаков в метрах; квадратными скобками обозначены формы облаков: Ci - перистые, Cs - перисто-слоистые, Cc - перисто-кучевые, Ac - высококучевые, As - высокослоистые, Sc - слоисто-кучевые, Ns - слоисто-дождевые, Cu - кучевые, Cb - кучево-дождевые. Подробнее классификацию облаков см. в Атласе облаков (PDF).
T - Температура воздуха - температура, измеренная на высоте 2 м над землей.
Td - Температура точки росы - температура, при понижении до которой содержащийся в воздухе водяной пар достигнет насыщения.
f - Относительная влажность воздуха - влажноcть воздуха, измеренная на высоте 2 м над землей.
Te - Эффективная температура - температура, которую ощущает одетый по сезону человек в тени. Характеристика душности погоды. При расчете учитывается влияние влажности воздуха и скорости ветра на теплоощущения человека.
Tes - Эффективная температура на солнце - температура, которую ощущает человек, с поправкой на солнечный нагрев. Характеристика знойности погоды. Зависит от высоты солнца над горизонтом, облачности и скорости ветра. Ночью, в пасмурную погоду, а также при ветре 12 м/с и более поправка равна нулю.
P - Атмосферное давление - приведенное к уровню моря атмосферное давление.
Po - Атмосферное давление - измеренное на уровне метеостанции атмосферное давление.
Tmin - Минимальная температура - минимум температуры воздуха на высоте 2 м над землей.
Tmax - Максимальная температура - максимум температуры воздуха на высоте 2 м над землей.
R - Количество осадков - Количество выпавших осадков за период времени, мм. При наведении курсора мыши на число - период времени, за который выпало указанное количество осадков.
R24 - Количество осадков - Количество выпавших осадков за 24 часа, мм.
S - Снежный покров - Высота снежного покрова, см. При наведении курсора мыши на число - состояние снежного покрова и степень покрытия местности в баллах.